User: anonymous   Login
Location: ROBOsky.com Wild Flower Ridge Observatory
(43.9736°N, 79.9739°W)
Time: 16:19:25
(UTC-04:00)
Language:

Cosmos 1190 Rocket - Orbit

View from above orbital plane
View from above orbital plane
View from above satellite
View from above satellite

Ground track
Ground track

The orbit data is extracted from the following two-line orbital elements,

1 11870U 80056B   15244.51835522  .00000079  00000-0  35655-4 0  9997
2 11870  74.0546 329.8535 0015320  84.5905 275.6995 14.36719575840780
Epoch (UTC): 01 September 2015 12:26:25
Eccentricity: 0.0015320
inclination: 74.0546°
perigee height: 758 km
apogee height: 780 km
right ascension of ascending node: 329.8535°
argument of perigee: 84.5905°
revolutions per day: 14.36719575
mean anomaly at epoch: 275.6995°
orbit number at epoch: 84078

The dashed part of the orbit path shows where the satellite is in the earth's shadow,  

DLR